Regional Weather Roundup
Issued by NWS Northern Indiana

Home | Current Version | Previous Version | Text Only | Print | Product List | Glossary Off
Versions: 1 2 3 4 5 6 7 8 9 10 11 12 13 14 15 16 17 18 19 20 21 22 23 24 25 26 27 28 29 30 31 32 33 34 35 36 37 38 39 40 41 42 43 44 45 46 47 48 49 50

000
ASUS43 KIWX 081710
RWRIWX

KIWX WEATHER ROUNDUP
NATIONAL WEATHER SERVICE NORTHERN INDIANA
1200 PM EST MON FEB 08 2016

NOTE: "FAIR" INDICATES FEW OR NO CLOUDS BELOW 12,000 FEET WITH NO
SIGNIFICANT WEATHER AND/OR OBSTRUCTIONS TO VISIBILITY.

* THESE STATIONS ARE NOT UNDER NWS QUALITY CONTROL. THEY ALSO MAY NOT
  REPORT WEATHER SUCH AS PRECIPITATION OR FOG.

INZ001>027-081800-
NORTHERN INDIANA

CITY           SKY/WX    TMP DP  RH WIND       PRES   REMARKS
GARY*          CLOUDY    32  21  64 W15       29.67S WCI  22
VALPARAISO     CLOUDY    31  26  82 W14       29.66R WCI  21
MICHIGAN CITY* DRIZZLE   32  32 100 W8        29.66S WCI  25
LAPORTE*       CLOUDY    33  33 100 NW12      29.65S FOG     WCI  24
KNOX*            N/A    N/A N/A N/A MISG        N/A
SOUTH BEND     CLOUDY    32  29  88 W7        29.64S WCI  26
ELKHART*         N/A     36  28  75 W8        29.64S
GOSHEN         CLOUDY    35  28  75 SW8       29.63F WCI  29
MONTICELLO*    CLOUDY    31  25  81 NW15      29.67R WCI  20
LOGANSPORT*    DRIZZLE   32  30  93 W7        29.66F WCI  26
ROCHESTER*     CLOUDY    36  30  80 W7        29.65S
WARSAW*        CLOUDY    36  30  80 W6        29.63F
ANGOLA*        CLOUDY    36  25  64 NW9       29.61F
FORT WAYNE     PTSUNNY   37  30  75 W12       29.64F
HUNTINGTON*    CLOUDY    35  27  73 W9        29.63F WCI  28
PERU/GRISSOM   CLOUDY    35  29  79 VRB3      29.63F
MARION*        PTSUNNY   35  26  68 W9        29.65S WCI  28

$$
INZ028>050-081800-
CENTRAL INDIANA

CITY           SKY/WX    TMP DP  RH WIND       PRES   REMARKS
LAFAYETTE      CLOUDY    30  24  78 NW14G22   29.69R WCI  19
KOKOMO*          N/A     36  28  75 W8        29.65F
MUNCIE*        CLOUDY    37  31  78 W9        29.65S
INDIANAPOLIS   FLURRIES  36  30  79 W12       29.66S

$$
MIZ043>046-050>051-056>058-064>065-071>073-077>080-081800-
SOUTHWEST LOWER MICHIGAN

CITY           SKY/WX    TMP DP  RH WIND       PRES   REMARKS
BATTLE CREEK   CLOUDY    35  28  75 SW7       29.62S WCI  29
BENTON HARBOR  CLOUDY    34  31  88 W8        29.63S WCI  27
COLDWATER*     CLOUDY    38  30  71 W9        29.61S
HILLSDALE*     CLOUDY    36  29  74 W8        29.59F
HOLLAND        CLOUDY    39  33  79 S7        29.61F
GRAND RAPIDS   PTSUNNY   38  30  73 SW6       29.61F
KALAMAZOO      CLOUDY    35  28  75 W6        29.62S WCI  30
STURGIS*       CLOUDY    33  29  86 W6        29.62S WCI  27
THREE RIVERS*  CLOUDY    33  30  86 SW5       29.63S WCI  29

$$
OHZ001>008-015>018-024>025-081800-
NORTHWEST OHIO

CITY           SKY/WX    TMP DP  RH WIND       PRES   REMARKS
DEFIANCE       CLOUDY    41  30  65 NW10      29.62S
FINDLAY        CLOUDY    43  28  55 W12       29.59F
TOLEDO EXPRESS CLOUDY    38  29  70 W8        29.61S
TOLEDO METCALF PTSUNNY   40  28  62 NW8       29.61F
LIMA           PTSUNNY   39  30  70 NW12      29.60F

$$
AND FOR LAKE MICHIGAN COASTAL AND OPEN LAKE BUOY OBSERVATIONS

STATION/POSITION TEMP    WIND        PRES    VSBY  WAVE
                 AIR SEA DIR/SP/G                  HT/PER
                 (F)     (DEG/KT/KT) (MB)    (MI)  (FT/S)
CALUMET HARBOR    31     270/  8/ 13 1004.0R
MICHIGAN CITY     30     250/ 19/ 20   N/A
BURNS HARBOR      32     270/ 13/ 21 1005.1R
SAINT JOSEPH      34     250/ 10/ 13 1004.4R

$$
&&



USA.gov is the U.S. government's official web portal to all federal, state and local government web resources and services.